Tracking 22130 objects as of 21-Jan-2021
HD Live streaming from Space Station
objects crossing your sky now

STARLINK-1272

Track STARLINK-1272 now!
10-day predictions
STARLINK-1272 is classified as:


NORAD ID: 45386
Int'l Code: 2020-019AC
Perigee: 552.9 km
Apogee: 555.8 km
Inclination: 53.1 °
Period: 95.6 minutes
Semi major axis: 6925 km
RCS: Unknown
Launch date: March 18, 2020
Source: United States (US)
Launch site: AIR FORCE EASTERN TEST RANGE (AFETR)
aabbcc
Your satellite tracking list
Your tracking list is empty




NASA's NSSDC Master Catalog

Two Line Element Set (TLE):
1 45386U 20019AC  21021.50323818  .00000246  00000-0  35436-4 0  9991
2 45386  53.0553 275.6589 0002067  77.0235 283.0984 15.06399883 47670
Source of the keplerian elements: AFSPC